• MPC Preparation (Info)

  • MPEC 2023-F125 : 2023 FO3

    The following Minor Planet Electronic Circular may be linked-to from your own Web pages, but must not otherwise be redistributed electronically.

    A form allowing access to any MPEC is at the bottom of this page.


    Read MPEC 2023-F124 Read MPEC 2023-F126


    M.P.E.C. 2023-F125                               Issued 2023 March 24, 12:54 UT
    
         The Minor Planet Electronic Circulars contain information on unusual
             minor planets, routine data on comets and natural satellites,
             and occasional editorial announcements.  They are published
        on behalf of Division F of the International Astronomical Union by the
              Minor Planet Center, Smithsonian Astrophysical Observatory,
                              Cambridge, MA 02138, U.S.A.
    			  
                 Prepared using the Tamkin Foundation Computer Network
    
                                  MPC@CFA.HARVARD.EDU
                URL https://www.minorplanetcenter.net/    ISSN 1523-6714
    
                                    2023 FO3                                 
    
    
    Observations:
         K23F03O* C2023 03 19.55826312 25 24.619+17 16 18.29         21.88wUEF125F52
         K23F03O  C2023 03 19.56964412 25 25.092+17 17 03.47         22.03wUEF125F52
         K23F03O  C2023 03 19.58101512 25 25.590+17 17 48.54         21.67wUEF125F52
         K23F03O  C2023 03 19.59238712 25 26.118+17 18 33.78         21.85wUEF125F52
         K23F03O  C2023 03 19.64193612 25 28.791+17 21 49.34         22.38GVEF125F52
         K23F03O  C2023 03 19.64256712 25 28.865+17 21 51.75         21.40GVEF125F52
         K23F03O 1C2023 03 21.98463 12 29 38.02 +20 38 47.8          21.5 VXEF125033
         K23F03O 1C2023 03 21.98743 12 29 38.27 +20 39 04.8          21.6 VXEF125033
         K23F03O 1C2023 03 21.99024 12 29 38.50 +20 39 22.3          21.3 VXEF125033
         K23F03O IC2023 03 22.95580112 31 58.16 +22 29 15.2          21.1 GVEF125L01
         K23F03O pC2023 03 22.95832712 31 58.46 +22 29 34.2          21.4 GVEF125L01
         K23F03O KC2023 03 22.96085212 31 58.72 +22 29 53.8          20.7 GVEF125L01
         K23F03O KC2023 03 22.96337612 31 58.96 +22 30 13.0          21.2 GVEF125L01
         K23F03O pC2023 03 22.96590112 31 59.23 +22 30 31.2          21.4 GVEF125L01
         K23F03O KC2023 03 24.20515512 35 59.04 +25 28 52.1          20.9 GXEF125858
         K23F03O KC2023 03 24.21346812 36 00.43 +25 30 16.7          20.7 GXEF125858
         K23F03O KC2023 03 24.22158912 36 01.72 +25 31 39.3          21.5 GXEF125858
    
    Observer details:
    033 Karl Schwarzschild Observatory, Tautenburg.  Observers S. Melnikov, C.
        Hoegner, F. Ludwig, B. Stecklum.  Measurer B. Stecklum.  1.34-m f/3
        Schmidt + CCD.
    858 Tebbutt Observatory, Edgewood.  Observer F. B. Zoltowski.  0.51-m f/8.1
        Schmidt-Cassegrain + CCD.
    F52 Pan-STARRS 2, Haleakala.  Observers J. Bulger, T. Lowe, A. Schultz, I.
        Smith, K. Chambers, T. Dukes.  Measurers K. Chambers, S. Chastel, T. de
        Boer, J. Fairlamb, H. Gao, M. Huber, C.-C. Lin, E. Magnier, Y.
        Ramanjooloo, R. Wainscoat, R. Weryk.  1.8-m Ritchey-Chretien + CCD.
    L01 Visnjan Observatory, Tican.  Observer K. Korlevic.  1.0-m f/2.9 reflector
        + CCD.
    
    Orbital elements:
    2023 FO3                                                 Earth MOID = 0.0168 AU
    Epoch 2023 Feb. 25.0 TT = JDT 2460000.5                 Veres                   
    M 299.76801              (2000.0)            P               Q                  
    n   0.68861253     Peri.  216.95801     -0.14764389     +0.98882632             
    a   1.2700460      Node    44.56210     -0.90026618     -0.12574374             
    e   0.3562476      Incl.    1.68122     -0.40953887     -0.08006890             
    P   1.43           H   26.66          G   0.15           U   9                  
    Residuals in seconds of arc
    230319 F52  0.0   0.0     230321 033  0.0   0.4+    230322 L01  0.3-  0.4+
    230319 F52  0.0   0.0     230321 033  0.1+  0.1+    230322 L01  0.3-  0.5-
    230319 F52  0.0   0.0     230321 033  0.0   0.1+    230324 858  0.0   0.0
    230319 F52  0.0   0.2+    230322 L01  0.2-  0.2-    230324 858  0.3+  0.1+
    230319 F52  0.2-  0.1-    230322 L01  0.2+  0.3-    230324 858  0.1-  0.1+
    230319 F52  0.3+  0.2-    230322 L01  0.1+  0.2+
    
    Ephemeris:
    2023 FO3                 a,e,i = 1.27, 0.36, 2                   q = 0.8176
    Date    TT    R. A. (2000) Decl.     Delta      r    Elong.  Phase     V
    2023 02 22    12 08 00.0 +07 31 44   0.2439  1.2113   152.9    21.8    25.1
    ...
    2023 03 09    12 16 47.3 +10 37 46   0.1373  1.1250   163.7    14.4    23.4
    ...
    2023 03 17    12 22 32.6 +14 50 35   0.08686 1.0785   163.8    14.9    22.3
    ...
    2023 03 23    12 32 03.6 +22 35 49   0.05168 1.0438   155.9    23.0    21.4
    2023 03 24    12 35 07.1 +24 56 34   0.04610 1.0381   153.3    25.6    21.2
    2023 03 25    12 39 09.7 +27 53 51   0.04065 1.0324   150.0    28.9    21.0
    ...
    2023 03 31    17 48 12.5 +74 34 25   0.01694 0.9987    89.4    89.6    21.0
    ...
    2023 04 08    23 49 05.8 +14 48 44   0.04848 0.9556    20.2   158.8    30.6
    ...
    2023 04 23    00 09 18.1 +02 23 26   0.1407  0.8851    29.2   146.3    29.9
    
    M. P. C. Staff               (C) Copyright 2023 MPC           M.P.E.C. 2023-F125
    


    Read MPEC 2023-F124 Read MPEC 2023-F126


    MPEC number:

    Enter an MPEC number in one of the following forms:

    • 1997-B01 (the full form)
    • J97B01 (the packed version of the full form)
    • B01 (the abbreviated form)